Find Kelpie-2

NORAD ID: 56996 Int'l Des: 2023-084 Owner: CLAAC Country: UK operational
LEOCIRCULARRETROGRADESSO

Current View

Loading 3D Globe...

About Kelpie-2

Description loading...

Upcoming Passes

Passes for default location (London). Set your location on the main map for personalized predictions.

Altitude History

Loading altitude history...

Two-Line Element Set

1 56996U 23084BY 26151.32200089 .00005327 00000-0 60693-3 0 9995
2 56996 98.1463 290.8313 0057769 151.7909 208.6455 14.85388233150876
Epoch: May 31, 2026 • Age: 10 hours

Current Status

Altitude 575.4 km
Velocity 7.60 km/s
Sub-Earth Point 27.45°N, 45.39°W
Launch Date Jun 12, 2023
Age 2.9 years
Type other

Technical Details

Classification Payload
Mass 4.00 kg
Dry Mass 4.00 kg
Total Mass 4.00 kg
Length 0.30 m
Diameter 0.10 m
Span 0.30 m
Shape Box
Manufacturer CLAAC
Bus Type Cubesat 3U
Phase Status In Orbit
Owner/State CLAAC/UK

Most Searched